| time (UTC) | temp F | wind direction | speed MPH | gust MPH | rain 1hr in | rain 24hr in | rain mn in | humidity % | barometer mb |
| 20260904100244 | 62 | 248 | 1.0 | 5.0 | 0.00 | 0.00 | 0.04 | 89 | 1009.7 |
| 20260904095741 | 62 | 240 | 1.0 | 4.0 | 0.00 | 0.00 | 0.04 | 89 | 1009.7 |
| 20260904095734 | 62 | 227 | 1.0 | 4.0 | 0.00 | 0.00 | 0.04 | 89 | 1009.6 |
| 20260904094732 | 62 | 237 | 1.0 | 3.0 | 0.00 | 0.00 | 0.04 | 89 | 1009.7 |
| 20260904094237 | 62 | 238 | 1.0 | 4.0 | 0.00 | 0.00 | 0.04 | 89 | 1009.6 |
| 20260904094231 | 62 | 230 | 1.0 | 4.0 | 0.00 | 0.00 | 0.04 | 89 | 1009.7 |
| 20260904093232 | 62 | 238 | 1.0 | 0.0 | 0.00 | 0.00 | 0.03 | 89 | 1009.5 |
| 20260904093227 | 62 | 234 | 1.0 | 3.0 | 0.00 | 0.00 | 0.04 | 89 | 1009.5 |
| 20260904091155 | 62 | 232 | 0.0 | 2.0 | 0.00 | 0.00 | 0.03 | 89 | 1009.6 |
| 20260904090653 | 62 | 216 | 0.0 | 2.0 | 0.00 | 0.00 | 0.03 | 89 | 1009.6 |
| 20260904090138 | 62 | 218 | 1.0 | 2.0 | 0.00 | 0.00 | 0.03 | 89 | 1009.6 |
| 20260904084737 | 62 | 194 | 0.0 | 3.0 | 0.01 | 0.01 | 0.03 | 89 | 1009.7 |
| 20260904084237 | 62 | 189 | 0.0 | 0.0 | 0.01 | 0.01 | 0.03 | 89 | 1009.8 |
| 20260904083721 | 62 | 198 | 0.0 | 0.0 | 0.00 | 0.00 | 0.02 | 89 | 1009.8 |
| 20260904082253 | 62 | 200 | 0.0 | 0.0 | 0.00 | 0.00 | 0.02 | 89 | 1009.9 |
| 20260904081112 | 62 | 207 | 0.0 | 0.0 | 0.00 | 0.00 | 0.02 | 89 | 1009.9 |
| 20260904080612 | 62 | 209 | 0.0 | 0.0 | 0.00 | 0.00 | 0.01 | 89 | 1009.9 |
| 20260904075345 | 63 | 194 | 0.0 | 1.0 | 0.00 | 0.00 | 0.00 | 89 | 1009.8 |
| 20260904073825 | 63 | 207 | 0.0 | 0.0 | 0.00 | 0.00 | 0.00 | 89 | 1009.8 |
| 20260904072551 | 63 | 195 | 0.0 | 3.0 | 0.00 | 0.00 | 0.00 | 89 | 1009.9 |
| 20260904072051 | 63 | 180 | 0.0 | 2.0 | 0.00 | 0.00 | 0.00 | 89 | 1009.9 |
| 20260904071551 | 63 | 173 | 0.0 | 2.0 | 0.00 | 0.00 | 0.00 | 88 | 1009.9 |
| 20260904071051 | 63 | 149 | 0.0 | 2.0 | 0.00 | 0.00 | 0.00 | 88 | 1009.8 |
| 20260904070548 | 63 | 58 | 0.0 | 1.0 | 0.00 | 0.00 | 0.00 | 89 | 1009.8 |
| 20260904070013 | 63 | 55 | 0.0 | 0.0 | 0.00 | 0.00 | 0.00 | 89 | 1009.9 |
| 20260904065054 | 63 | 51 | 0.0 | 0.0 | 0.00 | 0.00 | 0.04 | 89 | 1010.1 |
| 20260904064051 | 63 | 51 | 0.0 | 0.0 | 0.00 | 0.00 | 0.04 | 89 | 1010.0 |
| 20260904064028 | 63 | 51 | 0.0 | 0.0 | 0.00 | 0.00 | 0.04 | 89 | 1009.9 |
| 20260904061955 | 63 | 52 | 0.0 | 0.0 | 0.00 | 0.00 | 0.04 | 88 | 1010.1 |
| 20260904061451 | 63 | 52 | 0.0 | 0.0 | 0.00 | 0.00 | 0.04 | 88 | 1010.0 |
| 20260904060927 | 63 | 52 | 0.0 | 0.0 | 0.00 | 0.00 | 0.04 | 88 | 1009.9 |
| 20260904055743 | 64 | 52 | 0.0 | 0.0 | 0.00 | 0.00 | 0.04 | 88 | 1010.0 |
| 20260904055227 | 64 | 52 | 0.0 | 0.0 | 0.00 | 0.00 | 0.04 | 88 | 1009.9 |
| 20260904054707 | 64 | 53 | 0.0 | 0.0 | 0.00 | 0.00 | 0.04 | 87 | 1010.0 |
| 20260904054146 | 64 | 53 | 0.0 | 0.0 | 0.00 | 0.00 | 0.04 | 87 | 1010.1 |
| 20260904053623 | 64 | 53 | 0.0 | 0.0 | 0.00 | 0.00 | 0.04 | 87 | 1010.1 |
| 20260904053119 | 64 | 54 | 0.0 | 0.0 | 0.00 | 0.00 | 0.01 | 86 | 1010.2 |
| 20260904051742 | 64 | 70 | 0.0 | 0.0 | 0.00 | 0.00 | 0.00 | 86 | 1010.2 |
| 20260904050948 | 64 | 67 | 0.0 | 0.0 | 0.00 | 0.00 | 0.00 | 86 | 1010.1 |
| 20260904045928 | 64 | 67 | 0.0 | 0.0 | 0.00 | 0.00 | 0.00 | 86 | 1010.2 |
| 20260904045425 | 64 | 67 | 0.0 | 0.0 | 0.00 | 0.00 | 0.00 | 86 | 1010.1 |
| 20260904044852 | 64 | 67 | 0.0 | 0.0 | 0.00 | 0.00 | 0.00 | 85 | 1010.1 |
| 20260904044353 | 64 | 67 | 0.0 | 0.0 | 0.00 | 0.00 | 0.00 | 85 | 1010.2 |
| 20260904043837 | 64 | 67 | 0.0 | 0.0 | 0.00 | 0.00 | 0.00 | 85 | 1010.1 |
| 20260904043331 | 64 | 67 | 0.0 | 0.0 | 0.00 | 0.00 | 0.00 | 84 | 1010.1 |
| 20260904042045 | 65 | 67 | 0.0 | 0.0 | 0.00 | 0.00 | 0.00 | 83 | 1010.0 |
| 20260904041029 | 65 | 51 | 1.0 | 0.0 | 0.00 | 0.00 | 0.00 | 80 | 1010.2 |
| 20260904035327 | 65 | 38 | 2.0 | 4.0 | 0.00 | 0.00 | 0.00 | 79 | 1010.0 |
| 20260904034828 | 65 | 26 | 2.0 | 4.0 | 0.00 | 0.00 | 0.00 | 78 | 1010.1 |
| 20260904034324 | 65 | 27 | 2.0 | 4.0 | 0.00 | 0.00 | 0.00 | 76 | 1010.1 |
| 20260904034319 | 65 | 34 | 2.0 | 1.0 | 0.00 | 0.00 | 0.00 | 76 | 1010.1 |
| 20260904033016 | 65 | 33 | 2.0 | 5.0 | 0.00 | 0.00 | 0.00 | 75 | 1010.0 |
| 20260904032740 | 66 | 5 | 2.0 | 4.0 | 0.00 | 0.00 | 0.00 | 74 | 1009.9 |
| 20260904031958 | 66 | 349 | 2.0 | 3.0 | 0.00 | 0.00 | 0.00 | 74 | 1009.8 |
| 20260904031003 | 66 | 9 | 2.0 | 3.0 | 0.00 | 0.00 | 0.00 | 73 | 1009.8 |
| 20260904025641 | 67 | 55 | 3.0 | 9.0 | 0.00 | 0.00 | 0.00 | 71 | 1009.8 |
| 20260904025137 | 68 | 0 | 2.0 | 9.0 | 0.00 | 0.00 | 0.00 | 71 | 1009.8 |
| 20260904024640 | 68 | 264 | 2.0 | 4.0 | 0.00 | 0.00 | 0.00 | 72 | 1010.0 |
| 20260904024133 | 68 | 239 | 2.0 | 2.0 | 0.00 | 0.00 | 0.00 | 72 | 1010.0 |
| 20260904022711 | 69 | 242 | 1.0 | 4.0 | 0.00 | 0.00 | 0.00 | 72 | 1009.9 |
| 20260904022156 | 69 | 241 | 2.0 | 1.0 | 0.00 | 0.00 | 0.00 | 72 | 1009.9 |
| 20260904020841 | 69 | 240 | 3.0 | 0.0 | 0.00 | 0.00 | 0.00 | 70 | 1009.9 |
| 20260904020830 | 69 | 242 | 3.0 | 7.0 | 0.00 | 0.00 | 0.00 | 70 | 1009.9 |
| 20260904020614 | 69 | 234 | 3.0 | 5.0 | 0.00 | 0.00 | 0.00 | 70 | 1009.9 |
| 20260904020333 | 69 | 252 | 2.0 | 6.0 | 0.00 | 0.00 | 0.00 | 70 | 1009.9 |
| 20260904013925 | 70 | 230 | 4.0 | 9.0 | 0.00 | 0.00 | 0.00 | 69 | 1010.1 |
| 20260904013420 | 70 | 241 | 3.0 | 5.0 | 0.00 | 0.00 | 0.00 | 69 | 1010.1 |
| 20260904012926 | 70 | 229 | 3.0 | 3.0 | 0.00 | 0.00 | 0.00 | 69 | 1010.2 |
| 20260904011555 | 70 | 242 | 3.0 | 10.0 | 0.00 | 0.00 | 0.00 | 68 | 1010.2 |
| 20260904011054 | 70 | 238 | 3.0 | 10.0 | 0.00 | 0.00 | 0.00 | 68 | 1010.2 |
| 20260904010548 | 71 | 246 | 3.0 | 9.0 | 0.00 | 0.00 | 0.00 | 68 | 1010.3 |
| 20260904010044 | 71 | 244 | 3.0 | 9.0 | 0.00 | 0.00 | 0.00 | 67 | 1010.3 |
| 20260904005550 | 71 | 225 | 3.0 | 2.0 | 0.00 | 0.00 | 0.00 | 67 | 1010.3 |
| 20260904004447 | 71 | 235 | 5.0 | 13.0 | 0.00 | 0.00 | 0.00 | 66 | 1010.4 |
| 20260904003947 | 71 | 238 | 5.0 | 13.0 | 0.00 | 0.00 | 0.00 | 66 | 1010.4 |
| 20260904003448 | 71 | 231 | 4.0 | 13.0 | 0.00 | 0.00 | 0.00 | 65 | 1010.4 |
| 20260904002947 | 71 | 246 | 4.0 | 11.0 | 0.00 | 0.00 | 0.00 | 65 | 1010.3 |
| 20260904002446 | 72 | 242 | 4.0 | 7.0 | 0.00 | 0.00 | 0.00 | 65 | 1010.3 |
| 20260904001947 | 72 | 259 | 3.0 | 4.0 | 0.00 | 0.00 | 0.00 | 65 | 1010.3 |
| 20260904000539 | 72 | 236 | 4.0 | 6.0 | 0.00 | 0.00 | 0.00 | 64 | 1010.4 |
| 20260903235340 | 72 | 244 | 4.0 | 9.0 | 0.00 | 0.00 | 0.00 | 64 | 1010.4 |
| 20260903234841 | 73 | 253 | 4.0 | 5.0 | 0.00 | 0.00 | 0.00 | 64 | 1010.5 |
| 20260903233435 | 72 | 232 | 5.0 | 3.0 | 0.00 | 0.00 | 0.00 | 63 | 1010.6 |
| 20260903232131 | 72 | 232 | 4.0 | 10.0 | 0.00 | 0.00 | 0.00 | 63 | 1010.6 |
| 20260903232126 | 72 | 237 | 5.0 | 6.0 | 0.00 | 0.00 | 0.00 | 64 | 1010.8 |
| 20260903230443 | 73 | 234 | 5.0 | 13.0 | 0.00 | 0.00 | 0.00 | 62 | 1010.9 |
| 20260903225940 | 73 | 236 | 3.0 | 4.0 | 0.00 | 0.00 | 0.00 | 62 | 1010.9 |
| 20260903224611 | 73 | 212 | 4.0 | 8.0 | 0.00 | 0.00 | 0.00 | 61 | 1011.0 |
| 20260903224110 | 73 | 252 | 2.0 | 8.0 | 0.00 | 0.00 | 0.00 | 61 | 1011.0 |
| 20260903223611 | 73 | 247 | 2.0 | 7.0 | 0.00 | 0.00 | 0.00 | 62 | 1011.0 |
| 20260903223106 | 73 | 220 | 3.0 | 2.0 | 0.00 | 0.00 | 0.00 | 62 | 1011.0 |
| 20260903221712 | 73 | 212 | 4.0 | 11.0 | 0.00 | 0.00 | 0.00 | 62 | 1011.1 |
| 20260903221211 | 73 | 247 | 3.0 | 8.0 | 0.00 | 0.00 | 0.00 | 62 | 1011.2 |
| 20260903220711 | 73 | 227 | 4.0 | 3.0 | 0.00 | 0.00 | 0.00 | 62 | 1011.3 |
| 20260903215501 | 73 | 228 | 5.0 | 11.0 | 0.00 | 0.00 | 0.00 | 62 | 1011.6 |
| 20260903214954 | 73 | 239 | 5.0 | 7.0 | 0.00 | 0.00 | 0.00 | 62 | 1011.6 |
| 20260903213708 | 73 | 224 | 4.0 | 10.0 | 0.00 | 0.00 | 0.00 | 61 | 1011.7 |
| 20260903213203 | 73 | 243 | 5.0 | 10.0 | 0.00 | 0.00 | 0.00 | 62 | 1011.7 |
| 20260903212710 | 73 | 244 | 4.0 | 7.0 | 0.00 | 0.00 | 0.00 | 62 | 1011.7 |
| 20260903211242 | 72 | 232 | 5.0 | 11.0 | 0.00 | 0.00 | 0.00 | 62 | 1011.9 |
| 20260903210737 | 72 | 240 | 6.0 | 3.0 | 0.00 | 0.00 | 0.00 | 62 | 1011.9 |
| 20260903205631 | 73 | 240 | 5.0 | 14.0 | 0.00 | 0.00 | 0.00 | 62 | 1011.8 |
| 20260903205627 | 72 | 259 | 7.0 | 15.0 | 0.00 | 0.00 | 0.00 | 62 | 1011.9 |
| 20260903204626 | 73 | 235 | 5.0 | 12.0 | 0.00 | 0.00 | 0.00 | 61 | 1011.8 |
| 20260903204127 | 73 | 246 | 5.0 | 6.0 | 0.00 | 0.00 | 0.00 | 60 | 1011.9 |
| 20260903202657 | 74 | 231 | 4.0 | 9.0 | 0.00 | 0.00 | 0.00 | 59 | 1012.0 |
| 20260903202157 | 74 | 218 | 3.0 | 7.0 | 0.00 | 0.00 | 0.00 | 60 | 1011.8 |
| 20260903201656 | 74 | 220 | 4.0 | 2.0 | 0.00 | 0.00 | 0.00 | 59 | 1011.9 |
| 20260903200433 | 73 | 246 | 5.0 | 5.0 | 0.00 | 0.00 | 0.00 | 60 | 1012.1 |
| 20260903195219 | 74 | 232 | 3.0 | 2.0 | 0.00 | 0.00 | 0.00 | 60 | 1012.5 |
| 20260903193659 | 73 | 238 | 3.0 | 11.0 | 0.00 | 0.00 | 0.00 | 61 | 1012.6 |
| 20260903193159 | 73 | 242 | 3.0 | 6.0 | 0.00 | 0.00 | 0.00 | 61 | 1012.6 |
| 20260903192659 | 73 | 227 | 3.0 | 2.0 | 0.00 | 0.00 | 0.00 | 61 | 1012.6 |
| 20260903191454 | 73 | 204 | 3.0 | 0.0 | 0.00 | 0.00 | 0.00 | 61 | 1012.8 |
| 20260903190245 | 73 | 232 | 3.0 | 9.0 | 0.00 | 0.00 | 0.00 | 62 | 1012.9 |
| 20260903185742 | 73 | 248 | 4.0 | 9.0 | 0.00 | 0.00 | 0.00 | 62 | 1013.0 |
| 20260903185229 | 73 | 234 | 3.0 | 2.0 | 0.00 | 0.00 | 0.00 | 61 | 1013.0 |
| 20260903184425 | 73 | 240 | 3.0 | 7.0 | 0.00 | 0.00 | 0.00 | 62 | 1013.0 |
| 20260903182522 | 71 | 196 | 3.0 | 10.0 | 0.00 | 0.00 | 0.00 | 65 | 1013.1 |
| 20260903182023 | 70 | 238 | 3.0 | 3.0 | 0.00 | 0.00 | 0.00 | 66 | 1013.2 |
| 20260903181149 | 70 | 163 | 3.0 | 10.0 | 0.00 | 0.00 | 0.00 | 66 | 1013.3 |
| 20260903180142 | 70 | 259 | 3.0 | 7.0 | 0.00 | 0.00 | 0.00 | 65 | 1013.2 |
| 20260903175638 | 70 | 157 | 4.0 | 7.0 | 0.00 | 0.00 | 0.00 | 64 | 1013.2 |
| 20260903175137 | 71 | 207 | 3.0 | 6.0 | 0.00 | 0.00 | 0.00 | 64 | 1013.3 |
| 20260903174637 | 70 | 178 | 3.0 | 1.0 | 0.00 | 0.00 | 0.00 | 66 | 1013.3 |
| 20260903173058 | 67 | 193 | 1.0 | 6.0 | 0.00 | 0.00 | 0.00 | 70 | 1013.3 |
| 20260903172600 | 67 | 193 | 2.0 | 5.0 | 0.00 | 0.00 | 0.00 | 71 | 1013.2 |
| 20260903172101 | 65 | 186 | 2.0 | 4.0 | 0.00 | 0.00 | 0.00 | 73 | 1013.2 |
| 20260903172056 | 66 | 187 | 2.0 | 5.0 | 0.00 | 0.00 | 0.00 | 71 | 1013.2 |
| 20260903171055 | 65 | 178 | 2.0 | 4.0 | 0.00 | 0.00 | 0.00 | 73 | 1013.2 |
| 20260903170550 | 65 | 193 | 2.0 | 2.0 | 0.00 | 0.00 | 0.00 | 74 | 1013.3 |
| 20260903165117 | 64 | 190 | 1.0 | 3.0 | 0.00 | 0.00 | 0.00 | 75 | 1013.3 |
| 20260903164613 | 64 | 173 | 1.0 | 0.0 | 0.00 | 0.00 | 0.00 | 75 | 1013.3 |
| 20260903163527 | 64 | 236 | 1.0 | 0.0 | 0.00 | 0.00 | 0.00 | 76 | 1013.2 |
| 20260903162716 | 63 | 213 | 2.0 | 5.0 | 0.00 | 0.00 | 0.00 | 77 | 1013.3 |
| 20260903161713 | 63 | 234 | 2.0 | 5.0 | 0.00 | 0.00 | 0.00 | 77 | 1013.3 |
| 20260903161215 | 63 | 190 | 1.0 | 5.0 | 0.00 | 0.00 | 0.00 | 77 | 1013.3 |
| 20260903160711 | 62 | 193 | 1.0 | 4.0 | 0.00 | 0.00 | 0.00 | 77 | 1013.2 |
| 20260903160209 | 62 | 186 | 2.0 | 4.0 | 0.00 | 0.00 | 0.00 | 77 | 1013.3 |
| 20260903155655 | 62 | 157 | 2.0 | 1.0 | 0.00 | 0.00 | 0.00 | 77 | 1013.3 |
| 20260903154905 | 62 | 224 | 2.0 | 1.0 | 0.00 | 0.00 | 0.00 | 77 | 1013.3 |
| 20260903153146 | 62 | 126 | 2.0 | 5.0 | 0.00 | 0.00 | 0.00 | 78 | 1013.4 |
| 20260903152651 | 61 | 214 | 1.0 | 2.0 | 0.00 | 0.00 | 0.00 | 79 | 1013.5 |
| 20260903152647 | 62 | 254 | 1.0 | 5.0 | 0.00 | 0.00 | 0.00 | 78 | 1013.6 |
| 20260903150624 | 61 | 162 | 2.0 | 7.0 | 0.00 | 0.00 | 0.00 | 79 | 1013.2 |
| 20260903150124 | 61 | 193 | 2.0 | 6.0 | 0.00 | 0.00 | 0.00 | 80 | 1013.2 |
| 20260903145625 | 60 | 186 | 2.0 | 5.0 | 0.00 | 0.00 | 0.00 | 80 | 1013.2 |
| 20260903145127 | 60 | 195 | 2.0 | 5.0 | 0.00 | 0.00 | 0.00 | 80 | 1013.2 |
| 20260903144618 | 60 | 180 | 2.0 | 5.0 | 0.00 | 0.00 | 0.00 | 80 | 1013.2 |
| 20260903144117 | 60 | 171 | 1.0 | 0.0 | 0.00 | 0.00 | 0.00 | 81 | 1013.2 |
| 20260903142840 | 60 | 187 | 1.0 | 5.0 | 0.00 | 0.00 | 0.00 | 81 | 1013.2 |
| 20260903142345 | 60 | 112 | 1.0 | 3.0 | 0.00 | 0.00 | 0.00 | 81 | 1013.3 |
| 20260903141217 | 60 | 205 | 1.0 | 2.0 | 0.00 | 0.00 | 0.00 | 81 | 1013.2 |
| 20260903135844 | 59 | 196 | 2.0 | 4.0 | 0.00 | 0.00 | 0.00 | 81 | 1013.1 |
| 20260903135346 | 59 | 198 | 2.0 | 2.0 | 0.00 | 0.00 | 0.00 | 81 | 1013.0 |
| 20260903134149 | 59 | 190 | 2.0 | 6.0 | 0.00 | 0.00 | 0.00 | 81 | 1012.9 |
| 20260903133648 | 59 | 213 | 2.0 | 7.0 | 0.00 | 0.00 | 0.00 | 81 | 1012.9 |
| 20260903133150 | 59 | 216 | 2.0 | 7.0 | 0.00 | 0.00 | 0.00 | 81 | 1012.9 |
| 20260903132647 | 59 | 181 | 3.0 | 6.0 | 0.00 | 0.00 | 0.00 | 81 | 1013.0 |
| 20260903132147 | 59 | 211 | 3.0 | 5.0 | 0.00 | 0.00 | 0.00 | 81 | 1012.9 |
| 20260903130756 | 59 | 175 | 2.0 | 5.0 | 0.00 | 0.00 | 0.00 | 80 | 1013.1 |
| 20260903130256 | 59 | 186 | 2.0 | 5.0 | 0.00 | 0.00 | 0.00 | 80 | 1013.1 |
| 20260903125757 | 60 | 205 | 2.0 | 1.0 | 0.00 | 0.00 | 0.00 | 80 | 1013.1 |
| 20260903124635 | 60 | 211 | 1.0 | 4.0 | 0.00 | 0.00 | 0.00 | 80 | 1013.1 |
| 20260903124630 | 60 | 202 | 2.0 | 3.0 | 0.00 | 0.00 | 0.00 | 80 | 1013.1 |
| 20260903123229 | 60 | 192 | 1.0 | 5.0 | 0.00 | 0.00 | 0.00 | 80 | 1012.9 |
| 20260903122229 | 60 | 206 | 1.0 | 0.0 | 0.00 | 0.00 | 0.00 | 80 | 1013.0 |
| 20260903120829 | 60 | 165 | 1.0 | 4.0 | 0.00 | 0.00 | 0.00 | 81 | 1013.1 |
| 20260903120329 | 60 | 185 | 1.0 | 4.0 | 0.00 | 0.00 | 0.00 | 81 | 1013.1 |
| 20260903115813 | 60 | 185 | 1.0 | 4.0 | 0.00 | 0.00 | 0.00 | 81 | 1013.3 |
| 20260903114231 | 60 | 183 | 2.0 | 1.0 | 0.00 | 0.00 | 0.00 | 81 | 1013.4 |
| 20260903112903 | 60 | 181 | 2.0 | 9.0 | 0.00 | 0.00 | 0.00 | 81 | 1013.5 |
| 20260903112403 | 60 | 191 | 2.0 | 9.0 | 0.00 | 0.00 | 0.00 | 81 | 1013.5 |
| 20260903111902 | 60 | 207 | 2.0 | 1.0 | 0.00 | 0.00 | 0.00 | 81 | 1013.6 |
| 20260903111433 | 60 | 202 | 2.0 | 6.0 | 0.00 | 0.00 | 0.00 | 80 | 1013.6 |
| 20260903105922 | 60 | 188 | 2.0 | 4.0 | 0.00 | 0.00 | 0.00 | 80 | 1013.6 |
| 20260903105424 | 60 | 204 | 2.0 | 2.0 | 0.00 | 0.00 | 0.00 | 80 | 1013.6 |
| 20260903103850 | 60 | 185 | 2.0 | 0.0 | 0.00 | 0.00 | 0.00 | 79 | 1013.5 |
| 20260903102655 | 60 | 203 | 2.0 | 5.0 | 0.00 | 0.00 | 0.00 | 79 | 1013.4 |
| 20260903101559 | 60 | 182 | 3.0 | 6.0 | 0.00 | 0.00 | 0.00 | 77 | 1013.5 |
| 20260903101555 | 60 | 213 | 2.0 | 6.0 | 0.00 | 0.00 | 0.00 | 78 | 1013.4 |